Location: Le Gr�zie
(43.6000°N, 13.5000°E)
Time: 14:56:50
(UTC+00:00)

Cosmos 2360 Rocket - Pass Details

Date: 09 April 2020
Orbit: 834 x 845 km, 71.0° (Epoch: 27 May)

Event Time Altitude Azimuth Distance (km) Brightness Sun altitude
Rises 21:31:31 0° 345° (NNW) 3,393 6.3 -34.0°
Reaches altitude 10° 21:34:51 10° 5° (N) 2,456 5.2 -34.3°
Enters shadow 21:38:05 17° 40° (NE) 1,983 4.3 -34.6°
